Home > Weather > Rostock > Past weeks

Flag for Germany Weather for the Past 2 Weeks in Rostock, Mecklenburg-Western Pomerania, Germany

Now
52 °F

Partly sunny.


Feels Like: 49 °F
Forecast: 40 / 47 °F
Wind: 9 mph from South

Location: Laage

Current Time: Feb 7, 2016 at 3:02:26 PM

Latest Report: Feb 7, 2016 at 2:20 PM


Visibility: N/A

Pressure: 29.47 "Hg

Humidity: 62%

Dew point: 39 °F

Location of RostockLocation

Historic Weather in Rostock — Graph

°F

Rostock Temperature Yesterday

Maximum temperature yesterday: 50 °F (at 2:20 PM)
Minimum temperature yesterday: 43 °F (at 12:20 AM)
Average temperature yesterday: 46 °F

High & Low Weather Summary for the Past Weeks

 TemperatureHumidityPressure
High54 °F (Feb 7, 1:20 PM)100% (Jan 23, 1:20 PM)30.42 "Hg (Jan 23, 1:20 PM)
Low28 °F (Jan 23, 1:20 PM)57% (Feb 2, 4:20 PM)29.47 "Hg (Feb 7, 1:20 PM)
Average42 °F87%29.89 "Hg
* Reported Jan 23 1:20 PM — Feb 7 1:20 PM, Rostock, Weather by CustomWeather, © 2016

Note: Actual official high and low records may vary slightly from our data, if they occured in-between our weather recording intervals... More about our weather records

Advertising

Rostock Weather History for the Previous 24 Hours

 ConditionsComfort  
Time TempWeatherWind HumidityBarometerVisibility
1:20 PM
Sun, Feb 7
54 °FBroken clouds.10 mph58%29.47 "HgN/A
12:20 PM52 °FBroken clouds.10 mph62%29.50 "HgN/A
11:20 AM48 °FPartly sunny.9 mph66%29.53 "HgN/A
10:20 AM45 °FPartly sunny.7 mph71%29.53 "HgN/A
9:20 AM45 °FBroken clouds.10 mph71%29.53 "HgN/A
8:20 AM43 °FBroken clouds.8 mph76%29.53 "HgN/A
7:20 AM41 °FPassing clouds.5 mph81%29.56 "HgN/A
6:20 AM43 °FPassing clouds.6 mph76%29.56 "HgN/A
5:20 AM43 °FQuite cool.6 mph81%29.56 "HgN/A
4:20 AM43 °FQuite cool.9 mph81%29.59 "HgN/A
3:20 AM43 °FPassing clouds.8 mph81%29.62 "HgN/A
2:20 AM43 °FPassing clouds.6 mph81%29.62 "HgN/A
1:20 AM43 °FPassing clouds.6 mph87%29.65 "HgN/A
12:20 AM43 °FPassing clouds.5 mph87%29.68 "HgN/A
11:20 PM
Sat, Feb 6
43 °FPartly cloudy.6 mph87%29.68 "HgN/A
10:20 PM43 °FPassing clouds.5 mph93%29.71 "HgN/A
9:20 PM43 °FPassing clouds.3 mph93%29.71 "HgN/A
8:20 PM45 °FPassing clouds.6 mph87%29.74 "HgN/A
7:20 PM46 °FPassing clouds.6 mph82%29.74 "HgN/A
6:20 PM46 °FPartly cloudy.7 mph82%29.77 "HgN/A
5:20 PM46 °FPassing clouds.6 mph87%29.77 "HgN/A
4:20 PM48 °FPartly sunny.7 mph82%29.80 "HgN/A
3:20 PM50 °FScattered clouds.9 mph76%29.80 "HgN/A
Weather by CustomWeather, © 2016

See weather overviewHow to use our weather pages